DateTimeUTC,F1_A11,F1_S11,BsB_S11,BsG_S11,BsR_S11,BbsB_S11,BbsG_S11,BbsR_S11,BaB_A11,BaG_A11,BaR_A11,Tu_S11,T_S11,Uu_S11,U_S11,P_S11,T1_A11
2021-05-04T13:00:00Z,00000200,21000000,,,,,,,0000.05,0000.06,-000.08,18.5,25.0,,00.0,0678.6,31.1
2021-05-04T13:01:00Z,00000200,21000000,,,,,,,0000.19,-000.34,-000.18,18.5,25.1,,00.0,0678.6,31.1
2021-05-04T13:02:00Z,00000200,21000000,,,,,,,0000.15,0000.25,0000.23,18.5,25.1,,00.0,0678.6,31.1
2021-05-04T13:03:00Z,00000200,61000000,,,,,,,0000.63,0000.95,0000.76,18.5,25.1,,00.0,0678.6,31.1
2021-05-04T13:04:00Z,00000200,41000000,0004.39,0002.06,0001.55,0000.63,0000.39,0000.17,0001.75,0001.39,0000.92,18.6,25.0,,00.0,0679.5,31.1
2021-05-04T13:05:00Z,00000200,01000000,0003.91,0002.53,0001.79,0000.35,0000.46,0000.55,0001.47,0000.81,0000.79,18.7,24.9,,00.0,0679.6,31.1
2021-05-04T13:06:00Z,00000200,01000000,0003.86,0002.69,0001.91,0000.19,0000.16,0000.57,0001.35,0001.60,0001.25,18.7,24.9,,00.0,0679.6,31.1
2021-05-04T13:07:00Z,00000200,01000000,0004.49,0002.50,0001.83,0001.01,0000.53,0000.31,0001.40,0000.98,0000.82,18.7,24.9,,00.0,0679.5,31.1
2021-05-04T13:08:00Z,00000200,01000000,0004.45,0002.59,0001.68,0000.30,0000.51,0000.67,0001.49,0001.17,0000.98,18.7,24.9,,00.0,0679.6,31.1
2021-05-04T13:09:00Z,00000200,01000000,0004.48,0002.35,0001.60,0000.76,0000.55,0000.49,0001.07,0001.41,0001.06,18.8,24.9,,00.0,0679.6,31.1
2021-05-04T13:10:00Z,00000200,01000000,0003.67,0002.54,0001.78,0001.00,0000.51,0000.52,0001.46,0001.55,0000.86,18.8,24.9,,00.0,0679.6,31.1
2021-05-04T13:11:00Z,00000200,01000000,0004.16,0002.96,0001.73,0000.64,0000.54,0000.29,0001.52,0001.30,0001.03,18.7,24.9,,00.0,0679.6,31.1
2021-05-04T13:12:00Z,00000200,01000000,0003.85,0002.59,0001.70,0000.89,0000.31,0000.47,0001.18,0001.01,0000.37,18.8,25.0,,00.0,0679.6,31.1
2021-05-04T13:13:00Z,00000200,01000000,0004.22,0002.72,0001.65,0000.84,0000.27,0000.44,0001.78,0001.17,0001.18,18.8,24.9,,00.0,0679.6,31.1
2021-05-04T13:14:00Z,00000200,01000000,0003.98,0002.57,0001.49,0000.25,0000.46,0000.12,0001.17,0001.40,0000.71,18.8,24.9,,00.0,0679.6,31.1
2021-05-04T13:15:00Z,00000200,01000000,0004.05,0002.84,0001.76,0000.20,0000.31,0000.29,0001.39,0001.00,0000.85,18.8,25.0,,00.0,0679.6,31.1
2021-05-04T13:16:00Z,00000200,01000000,0003.66,0002.45,0001.36,0000.48,0000.34,0000.28,0001.22,0000.92,0000.84,18.8,25.0,,00.0,0679.6,31.1
2021-05-04T13:17:00Z,00000200,01000000,0003.90,0002.63,0001.44,0000.85,0000.43,0000.55,0001.33,0001.36,0000.90,18.8,25.0,,00.0,0679.6,31.1
2021-05-04T13:18:00Z,00000200,01000000,0003.66,0002.66,0001.79,0000.50,0000.47,0000.74,0001.49,0001.31,0000.75,18.8,24.9,,00.0,0679.6,31.1
2021-05-04T13:19:00Z,00000200,01000000,0004.41,0002.64,0001.85,0000.45,0000.55,0000.27,0001.32,0001.12,0001.17,18.8,25.0,,00.0,0679.6,31.1
2021-05-04T13:20:00Z,00000200,01000000,0003.91,0002.64,0001.46,0000.84,0000.45,0000.25,0001.44,0001.58,0000.87,18.9,25.0,,00.0,0679.6,31.1
2021-05-04T13:21:00Z,00000200,01000000,0003.37,0002.80,0001.57,0000.60,0000.22,0000.17,0001.40,0001.13,0000.92,18.9,25.0,,00.0,0679.6,31.1
2021-05-04T13:22:00Z,00000200,01000000,0004.63,0002.34,0001.70,0000.21,0000.36,0000.46,0001.02,0000.83,0000.84,18.9,25.0,,00.0,0679.6,31.1
2021-05-04T13:23:00Z,00000200,01000000,0003.77,0002.31,0001.79,0000.62,0000.17,0000.22,0001.50,0001.56,0000.94,18.9,25.0,,00.0,0679.6,31.1
2021-05-04T13:24:00Z,00000200,01000000,0004.15,0002.59,0001.56,0001.05,0000.38,0000.33,0001.38,0001.24,0001.17,18.9,25.0,,00.0,0679.6,31.1
2021-05-04T13:25:00Z,00000200,01000000,0004.34,0002.53,0001.58,0000.31,0000.10,0000.55,0001.51,0001.36,0000.55,19.0,25.1,,00.0,0679.6,31.1
2021-05-04T13:26:00Z,00000200,01000000,0004.35,0002.37,0001.41,0001.21,0000.26,0000.29,0001.24,0001.03,0001.11,19.0,25.1,,00.0,0679.6,31.1
2021-05-04T13:27:00Z,00000200,01000000,0003.75,0002.70,0001.45,0000.75,0000.35,0000.53,0001.42,0001.31,0000.83,19.0,25.0,,00.0,0679.6,31.1
2021-05-04T13:28:00Z,00000200,01000000,0004.31,0002.55,0001.76,0000.77,0000.36,0000.48,0001.05,0001.03,0000.92,19.0,25.1,,00.0,0679.6,31.1
2021-05-04T13:29:00Z,00000200,01000000,0004.03,0002.82,0001.61,0001.14,0000.58,0000.32,0001.70,0001.17,0000.84,19.1,25.1,,00.0,0679.6,31.1
2021-05-04T13:30:00Z,00000200,01000000,0004.05,0002.73,0001.58,0000.72,0000.34,0000.60,0001.07,0001.37,0001.09,19.1,25.1,,00.0,0679.7,31.1
2021-05-04T13:31:00Z,00000200,01000000,0004.02,0002.40,0001.51,0000.81,0000.22,0000.19,0001.46,0001.32,0000.78,19.1,25.2,,00.0,0679.6,31.1
2021-05-04T13:32:00Z,00000200,01000000,0004.02,0002.45,0001.84,0000.67,0000.25,0000.42,0001.43,0001.01,0000.88,19.1,25.2,,00.0,0679.7,31.1
2021-05-04T13:33:00Z,00000200,01000000,0004.02,0002.31,0001.35,0000.53,0000.18,0000.70,0001.35,0001.39,0000.86,19.2,25.2,,00.0,0679.7,31.2
2021-05-04T13:34:00Z,00000200,01000000,0004.88,0002.78,0001.48,0000.79,0000.29,0000.60,0001.61,0001.30,0001.14,19.2,25.2,,00.0,0679.7,31.1
2021-05-04T13:35:00Z,00000200,01000000,0003.56,0002.21,0001.52,0000.89,0000.32,0000.65,0001.06,0001.29,0000.64,19.2,25.2,,00.0,0679.7,31.1
2021-05-04T13:36:00Z,00000200,01000000,0003.91,0002.48,0001.81,0000.90,0000.46,0000.38,0001.38,0001.09,0000.92,19.2,25.2,,00.0,0679.7,31.1
2021-05-04T13:37:00Z,00000200,01000000,0004.34,0002.47,0001.69,0000.77,0000.45,0000.58,0001.39,0001.11,0000.69,19.2,25.3,,00.0,0679.7,31.1
2021-05-04T13:38:00Z,00000200,01000000,0003.82,0002.43,0001.80,0000.41,0000.31,0000.39,0001.34,0001.01,0001.17,19.2,25.3,,00.0,0679.7,31.1
2021-05-04T13:39:00Z,00000200,01000000,0004.39,0002.47,0001.63,0000.70,0000.41,0000.45,0001.13,0001.29,0000.66,19.3,25.3,,00.0,0679.7,31.2
2021-05-04T13:40:00Z,00000200,01000000,0004.07,0002.21,0001.56,0000.38,0000.48,0000.49,0001.45,0001.12,0000.85,19.3,25.3,,00.0,0679.7,31.2
2021-05-04T13:41:00Z,00000200,01000000,0003.80,0002.54,0001.60,0000.79,0000.32,0000.53,0000.94,0001.04,0001.01,19.3,25.3,,00.0,0679.7,31.2
2021-05-04T13:42:00Z,00000200,01000000,0003.55,0002.08,0001.61,0000.74,0000.00,0000.24,0001.61,0001.90,0000.57,19.3,25.3,,00.0,0679.7,31.2
2021-05-04T13:43:00Z,00000200,01000000,0003.54,0002.33,0001.45,0000.84,0000.44,0000.27,0001.30,0000.70,0001.21,19.3,25.3,,00.0,0679.7,31.2
2021-05-04T13:44:00Z,00000200,01000000,0003.74,0002.43,0001.61,0000.20,0000.21,0000.35,0000.90,0001.17,0000.93,19.3,25.3,,00.0,0679.7,31.2
2021-05-04T13:45:00Z,00000200,01000000,0003.65,0002.63,0001.67,0000.45,0000.42,0000.77,0001.57,0001.11,0000.47,19.3,25.3,,00.0,0679.7,31.1
2021-05-04T13:46:00Z,00000200,01000000,0003.44,0002.58,0001.60,0000.58,0000.52,0000.33,0001.44,0001.13,0000.78,19.3,25.4,,00.0,0679.6,31.1
2021-05-04T13:47:00Z,00000200,01000000,0003.46,0002.52,0001.51,0000.38,0000.32,0000.58,0001.21,0001.49,0001.06,19.4,25.4,,00.0,0679.6,31.2
2021-05-04T13:48:00Z,00000200,01000000,0003.59,0002.43,0001.96,0000.45,0000.53,0000.32,0001.68,0001.15,0000.99,19.4,25.4,,00.0,0679.6,31.2
2021-05-04T13:49:00Z,00000200,01000000,0003.84,0002.57,0001.65,0000.45,0000.29,0000.45,0001.22,0000.99,0000.91,19.4,25.4,,00.0,0679.6,31.1
2021-05-04T13:50:00Z,00000200,01000000,0003.35,0002.38,0001.68,-000.01,0000.44,0000.57,0001.35,0001.33,0000.71,19.4,25.4,,00.0,0679.7,31.1
2021-05-04T13:51:00Z,00000200,01000000,0003.58,0002.61,0001.42,0000.02,0000.27,0000.37,0001.28,0001.02,0001.04,19.4,25.4,,00.0,0679.6,31.1
2021-05-04T13:52:00Z,00000200,01000000,0003.99,0002.64,0001.49,0000.94,0000.32,0000.27,0001.43,0001.58,0000.92,19.4,25.4,,00.0,0679.6,31.2
2021-05-04T13:53:00Z,00000200,01000000,0003.52,0002.62,0001.63,0000.46,0000.13,0000.60,0001.33,0000.84,0001.05,19.4,25.4,,00.0,0679.7,31.2
2021-05-04T13:54:00Z,00000200,01000000,0004.04,0002.39,0001.50,0000.24,0000.35,0000.60,0001.34,0001.18,0000.39,19.4,25.4,,00.0,0679.6,31.1
2021-05-04T13:55:00Z,00000200,01000000,0003.46,0002.42,0001.68,0000.51,0000.41,0000.57,0001.25,0001.23,0000.98,19.4,25.5,,00.0,0679.6,31.2
2021-05-04T13:56:00Z,00000200,01000000,0003.99,0002.67,0001.60,0000.72,0000.19,0000.35,0001.67,0001.52,0001.16,19.4,25.5,,00.0,0679.6,31.1
2021-05-04T13:57:00Z,00000200,41000000,,,,,,,-000.00,0000.00,0000.23,19.5,25.5,,00.0,0679.7,31.1
2021-05-04T13:58:00Z,00000200,61000000,,,,,,,-000.08,-000.13,-000.20,19.3,25.6,,00.0,0678.6,31.2
2021-05-04T13:59:00Z,00000200,21000000,,,,,,,0000.24,0000.08,-000.12,19.3,25.7,,00.0,0678.6,31.2
